www.pogodaiklimat.ru

Погода и климат >> Архив погоды >> Норвегия >> Флоро аэропорт


ПОГОДА в Флоро аэропорту

  • Прогноз погоды в Флоро аэропорту
  • Монитор погоды в Флоро аэропорту

АРХИВ ПОГОДЫ в Флоро аэропорту

Время (UTC), дата Ветер
(напр.,м/с)
 
Видим.   Явления Облачность Т
(С)
Тd
(С)
f
(%)
Тe
(С)
Тes
(С)
Комфортность P
(гПа)
Po
(гПа)
Тmin
(С)
Tmax
(С)
R
(мм)
R24
(мм)
S
(см)
19 12.07 СЗ 8
{10}
н/о н/о +16.0 +10.6 70 +14 +14 1011.6 1010.3
20 12.07 СЗ 7
{9}
н/о н/о +16.5 +11.0 70 +15 +15 1011.9 1010.6
21 12.07 СЗ 8
{10}
н/о н/о +15.7 +10.3 70 +14 +14 1012.1 1010.7
22 12.07 СЗ 7
{12}
н/о н/о +15.0 +10.5 74 +13 +13 1012.7 1011.3
23 12.07 СЗ 8
{11}
н/о н/о +14.6 +10.2 75 +12 +12 1012.6 1011.3
00 13.07 СЗ 8
{12}
н/о н/о +14.0 +10.3 78 +12 +12 1012.9 1011.5
01 13.07 С 3
{8}
н/о н/о +12.7 +10.1 84 +11 +11 1013.0 1011.6
02 13.07 З 1
{4}
н/о н/о +13.2 +10.6 84 +13 +13 1013.3 1011.9
03 13.07 ЮЗ 2
{4}
н/о н/о +12.4 +9.7 84 +11 +11 1013.5 1012.1
04 13.07 В 3
{4}
н/о н/о +13.4 +10.8 84 +12 +12 1013.8 1012.4
05 13.07 В 1
{3}
н/о н/о +14.5 +10.8 78 +15 +15 1013.8 1012.5
06 13.07 СЗ 2
{8}
н/о н/о +15.5 +10.5 72 +15 +15 1013.8 1012.4 +12.0 +17.3
07 13.07 СЗ 4
{4}
н/о н/о +15.6 +9.8 68 +15 +15 1014.1 1012.7
08 13.07 СЗ 3
{4}
н/о н/о +16.0 +9.8 67 +16 +16 1014.2 1012.9
09 13.07 СЗ 6
{8}
н/о н/о +16.7 +9.1 61 +16 +16 1014.2 1012.8
10 13.07 СЗ 7
{9}
н/о н/о +16.5 +8.6 60 +15 +15 1014.1 1012.8
11 13.07 СЗ 8
{11}
н/о н/о +17.0 +9.1 60 +16 +16 1014.3 1012.9
12 13.07 СЗ 9
{12}
н/о н/о +17.0 +9.4 61 +16 +16 1014.2 1012.9
13 13.07 СЗ 9
{12}
н/о н/о +16.3 +9.6 65 +15 +15 1014.5 1013.2
14 13.07 СЗ 10
{13}
н/о н/о +16.1 +9.5 65 +14 +14 1014.5 1013.1
15 13.07 СЗ 10
{13}
н/о н/о +15.8 +9.4 66 +14 +14 1014.7 1013.4
16 13.07 СЗ 11
{14}
н/о н/о +15.5 +9.3 67 +13 +13 1014.8 1013.4
17 13.07 СЗ 10
{14}
н/о н/о +15.0 +8.8 66 +13 +13 1014.6 1013.2
18 13.07 С 9
{14}
н/о н/о +15.1 +8.7 66 +13 +13 1015.2 1013.8 +14.7 +17.3
19 13.07 СЗ 8
{11}
н/о н/о +14.6 +8.1 65 +12 +12 1015.5 1014.1
20 13.07 С 8
{11}
н/о н/о +13.6 +8.4 71 +11 +11 1015.6 1014.2
21 13.07 С 6
{10}
н/о н/о +13.1 +8.4 73 +11 +11 1015.9 1014.6
22 13.07 С 5
{8}
н/о н/о +12.8 +8.2 74 +11 +11 1016.3 1015.0
23 13.07 С 6
{10}
н/о н/о +12.5 +7.9 74 +10 +10 1016.6 1015.2
00 14.07 С 6
{11}
н/о н/о +12.1 +7.5 73 +9 +9 1016.8 1015.4
01 14.07 С 6
{10}
н/о н/о +11.9 +7.2 73 +9 +9 1017.3 1016.0
02 14.07 С 6
{8}
н/о н/о +11.6 +7.2 74 +9 +9 1017.3 1015.9
03 14.07 С 5
{7}
н/о н/о +11.6 +7.1 74 +9 +9 1017.4 1016.0
04 14.07 С 6
{8}
н/о н/о +12.0 +6.9 71 +9 +9 1017.6 1016.2
05 14.07 С 6
{10}
н/о н/о +11.9 +6.3 69 +9 +9 1017.8 1016.4
06 14.07 С 6
{10}
н/о н/о +12.2 +5.8 65 +10 +10 1018.0 1016.6 +11.4 +15.3
07 14.07 С 8
{11}
н/о н/о +12.5 +6.0 65 +10 +10 1018.7 1017.3
08 14.07 С 7
{11}
н/о н/о +13.6 +5.4 58 +11 +11 1018.6 1017.3
09 14.07 С 7
{10}
н/о н/о +13.9 +5.5 57 +12 +12 1018.7 1017.3
10 14.07 С 9
{11}
н/о н/о +13.9 +6.5 61 +11 +11 1018.7 1017.3
11 14.07 СЗ 9
{13}
н/о н/о +14.6 +7.3 62 +12 +12 1018.7 1017.4
12 14.07 СЗ 10
{13}
н/о н/о +13.9 +7.4 65 +11 +11 1018.7 1017.4
13 14.07 СЗ 11
{14}
н/о н/о +14.2 +7.7 65 +11 +11 1018.4 1017.1
14 14.07 СЗ 11
{15}
н/о н/о +14.4 +7.9 65 +12 +12 1018.5 1017.1
15 14.07 СЗ 11
{14}
н/о н/о +14.2 +7.3 63 +11 +11 1018.6 1017.3
16 14.07 СЗ 11
{15}
н/о н/о +13.8 +7.4 65 +11 +11 1018.3 1017.0
17 14.07 СЗ 11
{16}
н/о н/о +13.4 +7.3 67 +10 +10 1018.2 1016.8
18 14.07 СЗ 11
{17}
н/о н/о +13.2 +7.5 68 +10 +10 1018.3 1016.9 +12.2 +14.7
19 14.07 СЗ 9
{12}
н/о н/о +13.0 +7.5 69 +10 +10 1018.3 1016.9
20 14.07 С 10
{15}
н/о н/о +11.8 +7.4 74 +8 +8 1018.6 1017.3
21 14.07 С 10
{14}
н/о н/о +11.6 +7.5 76 +8 +8 1018.6 1017.2
22 14.07 С 8
{12}
н/о н/о +11.5 +7.5 76 +8 +8 1018.5 1017.1
23 14.07 С 8
{12}
н/о н/о +11.5 +7.3 75 +8 +8 1018.3 1016.9
00 15.07 СЗ 8
{15}
н/о н/о +11.4 +7.2 75 +8 +8 1018.2 1016.8
01 15.07 СЗ 10
{12}
н/о н/о +11.1 +7.4 78 +7 +7 1018.4 1017.0
02 15.07 СЗ 8
{12}
н/о н/о +10.8 +7.4 80 +7 +7 1018.1 1016.7
03 15.07 СЗ 9
{12}
н/о н/о +11.1 +7.5 78 +7 +7 1018.1 1016.7
04 15.07 С 5
{11}
н/о н/о +11.4 +7.4 76 +9 +9 1018.1 1016.7
05 15.07 СЗ 5
{8}
н/о н/о +12.0 +7.9 76 +10 +10 1018.0 1016.6
06 15.07 СЗ 6
{12}
н/о н/о +12.4 +8.0 75 +10 +10 1017.7 1016.3 +10.8 +13.2
07 15.07 СЗ 6
{7}
н/о н/о +12.5 +8.3 76 +10 +10 1017.7 1016.3
08 15.07 СЗ 5
{7}
н/о н/о +13.5 +9.1 75 +12 +12 1017.6 1016.2
09 15.07 СЗ 5
{6}
н/о н/о +13.5 +8.9 74 +12 +12 1017.5 1016.2
10 15.07 СЗ 5
{6}
н/о н/о +14.1 +9.9 76 +12 +12 1017.6 1016.2
11 15.07 СЗ 4
{6}
н/о н/о +14.1 +9.5 74 +13 +13 1017.2 1015.8
12 15.07 СЗ 5
{7}
н/о н/о +14.1 +10.0 76 +12 +12 1017.1 1015.8
13 15.07 СЗ 5
{7}
н/о н/о +14.1 +9.9 76 +12 +12 1017.2 1015.8
14 15.07 СЗ 4
{6}
н/о н/о +13.5 +10.1 80 +12 +12 1017.1 1015.7
15 15.07 СЗ 3
{6}
н/о н/о +13.4 +10.2 81 +12 +12 1016.7 1015.4
16 15.07 СЗ 5
{8}
н/о н/о +12.2 +10.8 91 +10 +10 1016.8 1015.4
17 15.07 СЗ 7
{8}
н/о н/о +13.2 +9.8 80 +11 +11 1016.5 1015.2
18 15.07 СЗ 7
{10}
н/о н/о +13.4 +9.6 78 +11 +11 1016.5 1015.1 +12.1 +14.8
19 15.07 СЗ 7
{10}
н/о н/о +12.7 +10.2 85 +10 +10 1016.5 1015.2
20 15.07 СЗ 5
{9}
н/о н/о +12.6 +9.8 83 +10 +10 1016.7 1015.3
21 15.07 С 5
{8}
н/о н/о +12.1 +9.9 86 +10 +10 1016.5 1015.1
22 15.07 СЗ 4
{9}
н/о н/о +11.9 +10.4 91 +10 +10 1016.6 1015.2
23 15.07 С 5
{8}
н/о н/о +12.0 +10.0 88 +9 +9 1016.8 1015.4
00 16.07 С 6
{10}
н/о н/о +12.0 +10.2 89 +9 +9 1016.8 1015.5
01 16.07 С 6
{9}
н/о н/о +12.2 +9.6 84 +9 +9 1016.9 1015.6
02 16.07 С 5
{8}
н/о н/о +12.1 +9.3 83 +10 +10 1016.7 1015.3
03 16.07 С 6
{8}
н/о н/о +12.4 +8.9 79 +10 +10 1016.5 1015.2
04 16.07 С 4
{7}
н/о н/о +12.7 +8.8 77 +11 +11 1016.3 1015.0
05 16.07 С 4
{7}
н/о н/о +13.4 +8.6 73 +12 +12 1016.1 1014.7
06 16.07 С 4
{9}
н/о н/о +14.0 +9.1 72 +13 +13 1016.1 1014.7 +11.8 +14.0
07 16.07 С 4
{8}
н/о н/о +15.1 +9.1 67 +14 +14 1015.8 1014.4
08 16.07 С 5
{7}
н/о н/о +15.4 +8.6 64 +14 +14 1015.5 1014.1
09 16.07 СЗ 5
{7}
н/о н/о +15.9 +8.5 61 +15 +15 1015.2 1013.8
10 16.07 СЗ 6
{8}
н/о н/о +16.3 +9.0 62 +15 +15 1014.9 1013.5
11 16.07 СЗ 6
{8}
н/о н/о +16.4 +8.9 61 +15 +15 1014.5 1013.2
12 16.07 СЗ 6
{9}
н/о н/о +17.1 +9.9 63 +16 +16 1014.3 1013.0
13 16.07 СЗ 7
{8}
н/о н/о +17.0 +9.4 61 +16 +16 1014.0 1012.7
14 16.07 СЗ 6
{8}
н/о н/о +17.3 +9.1 59 +17 +17 1013.8 1012.4
15 16.07 СЗ 7
{9}
н/о н/о +15.8 +9.9 68 +14 +14 1013.6 1012.2
16 16.07 СЗ 5
{8}
н/о н/о +16.0 +10.2 68 +15 +15 1013.5 1012.2
17 16.07 СЗ 5
{8}
н/о н/о +15.4 +9.9 70 +14 +14 1013.5 1012.1
18 16.07 СЗ 5
{9}
н/о н/о +14.7 +10.0 73 +13 +13 1013.3 1012.0 +13.9 +17.9
19 16.07 СЗ 3
{6}
н/о н/о +14.2 +9.6 74 +13 +13 1013.4 1012.0
20 16.07 СЗ 2
{4}
н/о н/о +14.1 +10.0 76 +14 +14 1013.2 1011.9
21 16.07 ЮЗ 2
{3}
н/о н/о +12.4 +9.2 81 +11 +11 1013.4 1012.0
22 16.07 Ю 4
{5}
н/о н/о +12.3 +9.7 84 +10 +10 1013.5 1012.1
23 16.07 ЮЗ 2
{4}
н/о н/о +12.0 +9.5 85 +11 +11 1013.5 1012.1
00 17.07 Ю 3
{6}
н/о н/о +12.2 +10.2 88 +11 +11 1013.5 1012.1
01 17.07 ЮЗ 4
{6}
н/о н/о +12.0 +10.4 90 +10 +10 1013.6 1012.2
02 17.07 Ю 4
{5}
н/о н/о +12.1 +10.8 92 +10 +10 1013.4 1012.1
03 17.07 Ю 3
{5}
н/о н/о +12.0 +10.6 91 +10 +10 1013.2 1011.8
04 17.07 Ю 3
{6}
н/о н/о +12.1 +10.8 92 +10 +10 1013.0 1011.7
05 17.07 ЮЗ 2
{3}
н/о н/о +12.8 +11.3 91 +12 +12 1013.1 1011.7
06 17.07 ЮЗ 3
{6}
н/о н/о +13.0 +11.4 90 +12 +12 1013.1 1011.7 +11.8 +14.8
07 17.07 ЮЗ 3
{5}
н/о н/о +13.2 +11.3 88 +12 +12 1013.0 1011.7
08 17.07 ЮЗ 3
{4}
н/о н/о +13.4 +10.7 84 +12 +12 1012.9 1011.5
09 17.07 З 3
{4}
н/о н/о +14.2 +10.8 80 +13 +13 1012.9 1011.5
10 17.07 ЮЗ 4
{6}
н/о н/о +14.1 +10.8 81 +13 +13 1012.8 1011.4
11 17.07 З 3
{5}
н/о н/о +14.9 +10.5 75 +14 +14 1012.7 1011.3
12 17.07 З 4
{6}
н/о н/о +13.9 +10.1 78 +12 +12 1012.4 1011.1
13 17.07 ЮЗ 3
{5}
н/о н/о +14.7 +8.9 68 +14 +14 1012.3 1010.9
14 17.07 ЮЗ 4
{6}
н/о н/о +15.6 +10.8 73 +15 +15 1012.0 1010.7
15 17.07 ЮЗ 3
{5}
н/о н/о +15.2 +11.0 76 +15 +15 1011.8 1010.4
16 17.07 З 2
{5}
н/о н/о +14.7 +10.5 76 +14 +14 1011.4 1010.0
17 17.07 ЮЗ 2
{3}
н/о н/о +15.1 +10.2 73 +15 +15 1011.0 1009.7
18 17.07 ЮЗ 1
{6}
н/о н/о +14.7 +8.1 65 +15 +15 1010.9 1009.5 +12.9 +15.9
19 17.07 ЮЗ 1
{2}
н/о н/о +14.3 +8.4 68 +15 +15 1010.5 1009.2
20 17.07 ЮЗ 1
{2}
н/о н/о +13.6 +9.0 74 +14 +14 1010.3 1008.9
21 17.07 Ю 1
{2}
н/о н/о +13.2 +9.0 76 +13 +13 1010.0 1008.6
22 17.07 ЮВ 2
{2}
н/о н/о +13.2 +10.1 81 +12 +12 1009.7 1008.4
23 17.07 ЮВ 1
{2}
н/о н/о +13.0 +10.1 83 +13 +13 1009.6 1008.2
00 18.07 В 2
{3}
н/о н/о +12.6 +10.3 86 +12 +12 1009.3 1007.9
01 18.07 В 3
{3}
н/о н/о +13.6 +11.9 89 +12 +12 1009.0 1007.6
02 18.07 В 2
{3}
н/о н/о +13.3 +11.8 91 +13 +13 1008.5 1007.2
03 18.07 З 2
{4}
н/о н/о +12.7 +11.5 92 +12 +12 1008.3 1007.0
04 18.07 З 2
{3}
н/о н/о +13.1 +11.9 92 +12 +12 1007.8 1006.4
05 18.07 ЮЗ 1
{5}
н/о н/о +13.6 +12.3 92 +14 +14 1007.5 1006.1
06 18.07 Ю 3
{6}
н/о н/о +13.5 +12.1 91 +12 +12 1007.4 1006.0 +12.6 +14.8
07 18.07 СЗ 1
{2}
н/о н/о +14.2 +12.3 88 +15 +15 1007.0 1005.7
08 18.07 З 3
{4}
н/о н/о +14.6 +12.1 85 +14 +14 1006.9 1005.6
09 18.07 З 4
{6}
н/о н/о +14.4 +11.6 83 +13 +13 1007.0 1005.7
10 18.07 СЗ 3
{5}
н/о н/о +14.7 +11.6 82 +14 +14 1007.0 1005.7
11 18.07 СЗ 2
{4}
н/о н/о +15.0 +11.8 81 +15 +15 1006.9 1005.6
12 18.07 В 2
{6}
н/о н/о +15.5 +12.0 80 +15 +15 1006.8 1005.5
13 18.07 ЮВ 2
{2}
н/о н/о +15.4 +12.5 83 +15 +15 1007.0 1005.6
14 18.07 ЮВ 1
{2}
н/о н/о +14.7 +12.6 87 +15 +15 1007.0 1005.6
15 18.07 ЮВ 4
{6}
н/о н/о +14.9 +13.3 90 +14 +14 1006.9 1005.5
16 18.07 ЮВ 5
{7}
н/о н/о +15.3 +13.2 87 +14 +14 1006.5 1005.1
17 18.07 ЮВ 4
{6}
н/о н/о +16.1 +13.4 84 +15 +15 1006.3 1005.0
18 18.07 ЮВ 4
{7}
н/о н/о +14.9 +12.9 88 +14 +14 1006.3 1004.9 +13.5 +16.3
19 18.07 ЮВ 6
{8}
н/о н/о +14.4 +11.6 83 +12 +12 1006.1 1004.8
20 18.07 ЮВ 4
{7}
н/о н/о +15.9 +12.4 80 +15 +15 1006.0 1004.7
21 18.07 ЮВ 5
{8}
н/о н/о +16.4 +12.1 76 +15 +15 1006.0 1004.7
22 18.07 ЮВ 4
{6}
н/о н/о +14.4 +11.5 83 +13 +13 1005.9 1004.5
23 18.07 Ю 4
{5}
н/о н/о +15.1 +12.9 87 +14 +14 1005.7 1004.4
00 19.07 ЮВ 3
{8}
н/о н/о +14.7 +13.1 90 +14 +14 1005.7 1004.4
01 19.07 ЮВ 2
{6}
н/о н/о +14.1 +12.8 92 +14 +14 1006.0 1004.6
02 19.07 ЮЗ 5
{8}
н/о н/о +14.0 +12.9 93 +12 +12 1006.4 1005.0
03 19.07 Ю 9
{13}
н/о н/о +14.2 +12.5 90 +12 +12 1006.7 1005.4
04 19.07 ЮЗ 4
{10}
н/о н/о +14.0 +12.1 88 +12 +12 1007.1 1005.7
05 19.07 ЮЗ 5
{9}
н/о н/о +13.6 +11.9 89 +12 +12 1007.5 1006.1
06 19.07 ЮЗ 5
{13}
н/о н/о +13.5 +12.0 91 +11 +11 1007.9 1006.6 +13.3 +16.6
07 19.07 ЮЗ 4
{8}
н/о н/о +14.3 +12.3 88 +13 +13 1008.3 1007.0
08 19.07 ЮЗ 4
{7}
н/о н/о +14.7 +11.8 83 +13 +13 1008.7 1007.4
09 19.07 ЮЗ 2
{5}
н/о н/о +16.1 +11.8 76 +16 +16 1008.9 1007.5
10 19.07 ЮЗ 3
{5}
н/о н/о +15.8 +11.6 76 +15 +15 1009.2 1007.8
11 19.07 З 4
{6}
н/о н/о +15.9 +11.9 77 +15 +15 1009.4 1008.0
12 19.07 З 4
{8}
н/о н/о +14.2 +11.7 85 +13 +13 1009.8 1008.5
13 19.07 ЮЗ 4
{6}
н/о н/о +14.8 +11.7 82 +14 +14 1010.1 1008.8
14 19.07 Ю 2
{6}
н/о н/о +16.1 +12.0 77 +16 +16 1010.4 1009.0
15 19.07 З 4
{6}
н/о н/о +15.8 +11.5 76 +15 +15 1010.4 1009.0
17 19.07 З 2
{4}
н/о н/о +16.4 +12.0 75 +17 +17 1010.2 1008.8
18 19.07 З 3
{7}
н/о н/о +14.5 +12.0 85 +14 +14 1010.4 1009.0 +13.5 +17.6

 

Местоположение метеостанции Флоро аэропорт (Норвегия): широта 61.58 долгота 5.03 высота над уровнем моря 9 м.

В архиве по умолчанию представлена погода в Флоро аэропорту за последнюю неделю. Архивные данные за месяц целиком и за предыдущие месяцы, начиная с января 2011 года, Вы можете получить, выбрав интересующий диапазон дат из раскрывающегося списка и нажав кнопку "Ввод!".


*Определитесь, кто Вы:
робот инопланетянин человек

Внимание! Время в таблицах - всемирное. Для получения местного времени необходимо прибавить поправку, которая равна 1 ч.

Смотрите также архив погоды в соседних городах и на ближайших метеорологических станциях:

Погода на Маяке Ytteroyane (Норвегия) (19 км)
Погода в Фурунесете (Норвегия) (32 км)
Погода во Флурё аэропорту (Норвегия) (44 км)
Погода во Флурё (Норвегия) (49 км)
Погода на Маяке Krakenes (Норвегия) (50 км)
Погода в Сандан аэропорту (Норвегия) (63 км)
Погода в Такле (Норвегия) (64 км)
Погода в Фиске (Норвегия) (65 км)
Погода в Берген аэропорту (Норвегия) (80 км)
Погода на Маяке Svinoy (Норвегия) (84 км)

Пояснения к столбцам:

Ветер - указаны скорость ветра в м/с - средняя за 10 мин, порывы в срок и между сроками (в фигурных скобках) и направление, откуда дует ветер: С - северный, СВ - северо-восточный, В - восточный, ЮВ - юго-восточный, Ю - южный, ЮЗ - юго-западный, З - западный, СЗ - северо-западный.
Видимость - горизонтальная дальность видимости в метрах или километрах. При видимости от 1 до 10 км при отсутствии осадков обычно наблюдается дымка, при ухудшении видимости до 1 км и менее - туман. В сухую погоду видимость может ухудшаться дымом, пылью или мглою.
Явления - указаны атмосферные явления, наблюдавшиеся в срок или в последний час перед сроком; фигурными скобками обозначены явления, наблюдавшиеся между сроками (за 1-3 часа до срока); квадратными скобками обозначены град или гололедные отложения с указанием их диаметра в мм.
Облачность - указаны через наклонную черту общая и нижняя облачность в баллах и высота нижней границы облаков в метрах; квадратными скобками обозначены формы облаков: Ci - перистые, Cs - перисто-слоистые, Cc - перисто-кучевые, Ac - высококучевые, As - высокослоистые, Sc - слоисто-кучевые, Ns - слоисто-дождевые, Cu - кучевые, Cb - кучево-дождевые. Подробнее классификацию облаков см. в Атласе облаков (PDF).
T - Температура воздуха - температура, измеренная на высоте 2 м над землей.
Td - Температура точки росы - температура, при понижении до которой содержащийся в воздухе водяной пар достигнет насыщения.
f - Относительная влажность воздуха - влажноcть воздуха, измеренная на высоте 2 м над землей.
Te - Эффективная температура - температура, которую ощущает одетый по сезону человек в тени. Характеристика душности погоды. При расчете учитывается влияние влажности воздуха и скорости ветра на теплоощущения человека.
Tes - Эффективная температура на солнце - температура, которую ощущает человек, с поправкой на солнечный нагрев. Характеристика знойности погоды. Зависит от высоты солнца над горизонтом, облачности и скорости ветра. Ночью, в пасмурную погоду, а также при ветре 12 м/с и более поправка равна нулю.
P - Атмосферное давление - приведенное к уровню моря атмосферное давление.
Po - Атмосферное давление - измеренное на уровне метеостанции атмосферное давление.
Tmin - Минимальная температура - минимум температуры воздуха на высоте 2 м над землей.
Tmax - Максимальная температура - максимум температуры воздуха на высоте 2 м над землей.
R - Количество осадков - Количество выпавших осадков за период времени, мм. При наведении курсора мыши на число - период времени, за который выпало указанное количество осадков.
R24 - Количество осадков - Количество выпавших осадков за 24 часа, мм.
S - Снежный покров - Высота снежного покрова, см. При наведении курсора мыши на число - состояние снежного покрова и степень покрытия местности в баллах.